• In Czech Republic
  • List of Countries
  • For 7 days
  • Water Temperature
  • Satellite Maps
  • Weather Map
  • Weather Widgets
  • user-avatar
    Login

    Hourly Weather Dinagepoor

    Today, 23 October, Monday

    Time Temperature Precipitation Wind Pressure Humidity
    00:00 +26°C° 0 mm 3 mps 753 mmHg 85%
    01:00 +25°C° 0 mm 3 mps 753 mmHg 86%
    02:00 +25°C° 0 mm 2 mps 753 mmHg 88%
    03:00 +25°C° 0 mm 2 mps 752 mmHg 89%
    04:00 +24°C° 0 mm 2 mps 753 mmHg 90%
    05:00 +24°C° 0 mm 2 mps 753 mmHg 91%
    06:00 +24°C° 0 mm 2 mps 753 mmHg 92%
    07:00 +25°C° 0 mm 2 mps 754 mmHg 87%
    08:00 +27°C° 0 mm 2 mps 754 mmHg 81%
    09:00 +28°C° 0 mm 2 mps 755 mmHg 76%
    10:00 +29°C° 0 mm 2 mps 754 mmHg 70%
    11:00 +31°C° 0 mm 2 mps 754 mmHg 63%
    12:00 +32°C° 0 mm 1 mps 754 mmHg 57%
    13:00 +32°C° 0 mm 2 mps 753 mmHg 54%
    14:00 +34°C° 0 mm 2 mps 753 mmHg 52%
    15:00 +34°C° 0 mm 2 mps 752 mmHg 49%
    16:00 +32°C° 0 mm 1 mps 752 mmHg 53%
    17:00 +30°C° 0 mm 1 mps 752 mmHg 56%
    18:00 +28°C° 0 mm 1 mps 752 mmHg 60%
    19:00 +28°C° 0 mm 1 mps 753 mmHg 61%
    20:00 +25°C° 0 mm 0 mps 754 mmHg 63%
    21:00 +25°C° 0 mm 0 mps 754 mmHg 65%
    22:00 +26°C° 0 mm 1 mps 755 mmHg 67%
    23:00 +26°C° 0 mm 1 mps 755 mmHg 69%

    Tomorrow, 24 October, Tuesday

    Time Temperature Precipitation Wind Pressure Humidity
    00:00 +25°C° 0 mm 1 mps 755 mmHg 71%
    01:00 +25°C° 0 mm 1 mps 755 mmHg 73%
    02:00 +25°C° 0 mm 1 mps 755 mmHg 74%
    03:00 +24°C° 0 mm 1 mps 755 mmHg 76%
    04:00 +24°C° 0 mm 1 mps 755 mmHg 78%
    05:00 +24°C° 0 mm 1 mps 755 mmHg 79%
    06:00 +24°C° 0 mm 1 mps 755 mmHg 80%
    07:00 +25°C° 0 mm 1 mps 756 mmHg 77%
    08:00 +27°C° 0 mm 2 mps 756 mmHg 73%
    09:00 +28°C° 0 mm 2 mps 757 mmHg 70%
    10:00 +29°C° 0 mm 1 mps 757 mmHg 66%
    11:00 +31°C° 0 mm 1 mps 757 mmHg 61%
    12:00 +32°C° 0 mm 1 mps 756 mmHg 57%
    13:00 +32°C° 0 mm 1 mps 756 mmHg 54%
    14:00 +33°C° 0 mm 1 mps 755 mmHg 52%
    15:00 +33°C° 0 mm 1 mps 754 mmHg 50%
    16:00 +32°C° 0 mm 1 mps 754 mmHg 54%
    17:00 +30°C° 0 mm 1 mps 755 mmHg 57%
    18:00 +27°C° 0 mm 0 mps 755 mmHg 61%
    19:00 +26°C° 0 mm 0 mps 755 mmHg 63%
    20:00 +26°C° 0 mm 0 mps 756 mmHg 65%
    21:00 +25°C° 0 mm 0 mps 756 mmHg 66%
    22:00 +25°C° 0 mm 0 mps 757 mmHg 68%
    23:00 +26°C° 0 mm 1 mps 757 mmHg 70%

    Day after tomorrow, 25 October, Wednesday

    Time Temperature Precipitation Wind Pressure Humidity
    00:00 +26°C° 0 mm 1 mps 757 mmHg 72%
    01:00 +25°C° 0 mm 1 mps 757 mmHg 75%
    02:00 +25°C° 0 mm 1 mps 756 mmHg 78%
    03:00 +24°C° 0 mm 2 mps 756 mmHg 81%
    04:00 +24°C° 0 mm 2 mps 757 mmHg 83%
    05:00 +24°C° 0 mm 2 mps 757 mmHg 86%
    06:00 +23°C° 0 mm 2 mps 757 mmHg 88%
    07:00 +25°C° 0 mm 2 mps 758 mmHg 83%
    08:00 +26°C° 0 mm 2 mps 759 mmHg 79%
    09:00 +28°C° 0 mm 2 mps 759 mmHg 74%
    10:00 +29°C° 0.1 mm 2 mps 759 mmHg 69%
    11:00 +30°C° 0.1 mm 2 mps 759 mmHg 64%
    12:00 +32°C° 0.1 mm 1 mps 758 mmHg 59%
    13:00 +32°C° 0 mm 1 mps 758 mmHg 55%
    14:00 +32°C° 0 mm 1 mps 757 mmHg 50%
    15:00 +33°C° 0 mm 1 mps 756 mmHg 45%
    16:00 +31°C° 0 mm 1 mps 756 mmHg 49%
    17:00 +30°C° 0 mm 1 mps 756 mmHg 53%
    18:00 +28°C° 0 mm 1 mps 756 mmHg 57%
    19:00 +27°C° 0 mm 1 mps 757 mmHg 60%
    20:00 +27°C° 0 mm 1 mps 757 mmHg 62%
    21:00 +26°C° 0 mm 1 mps 758 mmHg 65%
    22:00 +25°C° 0 mm 1 mps 758 mmHg 68%
    23:00 +25°C° 0 mm 1 mps 758 mmHg 70%

    26 October, Thursday

    Time Temperature Precipitation Wind Pressure Humidity
    00:00 +25°C° 0 mm 1 mps 758 mmHg 73%
    01:00 +24°C° 0 mm 1 mps 758 mmHg 75%
    02:00 +24°C° 0 mm 1 mps 757 mmHg 77%
    03:00 +24°C° 0 mm 1 mps 757 mmHg 80%
    04:00 +23°C° 0 mm 1 mps 758 mmHg 82%
    05:00 +23°C° 0 mm 1 mps 758 mmHg 83%
    06:00 +23°C° 0 mm 1 mps 758 mmHg 85%
    07:00 +24°C° 0 mm 2 mps 759 mmHg 81%
    08:00 +26°C° 0 mm 2 mps 759 mmHg 77%
    09:00 +27°C° 0 mm 2 mps 760 mmHg 72%
    10:00 +28°C° 0.1 mm 2 mps 759 mmHg 67%
    11:00 +30°C° 0.1 mm 1 mps 759 mmHg 62%
    12:00 +31°C° 0.1 mm 1 mps 759 mmHg 57%
    13:00 +31°C° 0 mm 1 mps 758 mmHg 54%
    14:00 +31°C° 0 mm 1 mps 757 mmHg 52%
    15:00 +32°C° 0 mm 1 mps 756 mmHg 49%
    16:00 +30°C° 0 mm 1 mps 756 mmHg 53%
    17:00 +29°C° 0 mm 1 mps 756 mmHg 57%
    18:00 +27°C° 0 mm 1 mps 756 mmHg 62%
    19:00 +27°C° 0 mm 1 mps 757 mmHg 64%
    20:00 +26°C° 0 mm 1 mps 757 mmHg 66%
    21:00 +26°C° 0 mm 1 mps 758 mmHg 68%
    22:00 +25°C° 0 mm 1 mps 757 mmHg 70%
    23:00 +25°C° 0 mm 1 mps 757 mmHg 72%

    27 October, Friday

    Time Temperature Precipitation Wind Pressure Humidity
    00:00 +24°C° 0 mm 1 mps 757 mmHg 73%
    01:00 +24°C° 0 mm 1 mps 757 mmHg 75%
    02:00 +24°C° 0 mm 1 mps 757 mmHg 76%
    03:00 +21°C° 0 mm 0 mps 756 mmHg 78%
    04:00 +21°C° 0 mm 0 mps 756 mmHg 79%
    05:00 +21°C° 0 mm 0 mps 757 mmHg 80%
    06:00 +21°C° 0 mm 0 mps 757 mmHg 82%
    07:00 +24°C° 0 mm 1 mps 757 mmHg 77%
    08:00 +26°C° 0 mm 1 mps 758 mmHg 73%
    09:00 +27°C° 0 mm 1 mps 758 mmHg 69%
    10:00 +28°C° 0 mm 1 mps 758 mmHg 65%
    11:00 +30°C° 0 mm 1 mps 757 mmHg 60%
    12:00 +31°C° 0 mm 1 mps 757 mmHg 55%
    13:00 +31°C° 0 mm 1 mps 756 mmHg 54%
    14:00 +31°C° 0 mm 1 mps 756 mmHg 52%
    15:00 +31°C° 0 mm 1 mps 755 mmHg 50%
    16:00 +30°C° 0 mm 1 mps 755 mmHg 54%
    17:00 +28°C° 0 mm 1 mps 755 mmHg 58%
    18:00 +27°C° 0 mm 1 mps 755 mmHg 62%
    19:00 +27°C° 0 mm 1 mps 756 mmHg 64%
    20:00 +26°C° 0 mm 1 mps 756 mmHg 66%
    21:00 +26°C° 0 mm 1 mps 756 mmHg 68%
    22:00 +25°C° 0 mm 1 mps 756 mmHg 70%
    23:00 +25°C° 0 mm 1 mps 756 mmHg 72%

    28 October, Saturday

    Time Temperature Precipitation Wind Pressure Humidity
    00:00 +24°C° 0 mm 1 mps 756 mmHg 73%
    01:00 +24°C° 0 mm 1 mps 756 mmHg 75%
    02:00 +24°C° 0 mm 1 mps 756 mmHg 77%
    03:00 +23°C° 0 mm 1 mps 756 mmHg 78%
    04:00 +23°C° 0 mm 1 mps 756 mmHg 80%
    05:00 +23°C° 0 mm 1 mps 756 mmHg 81%
    06:00 +22°C° 0 mm 1 mps 757 mmHg 83%
    07:00 +24°C° 0 mm 2 mps 757 mmHg 78%
    08:00 +25°C° 0 mm 2 mps 758 mmHg 74%
    09:00 +27°C° 0 mm 2 mps 759 mmHg 70%
    10:00 +28°C° 0 mm 2 mps 758 mmHg 65%
    11:00 +29°C° 0 mm 2 mps 758 mmHg 61%
    12:00 +30°C° 0 mm 2 mps 757 mmHg 56%
    13:00 +30°C° 0 mm 2 mps 757 mmHg 55%
    14:00 +31°C° 0 mm 2 mps 756 mmHg 54%
    15:00 +31°C° 0 mm 2 mps 755 mmHg 52%
    16:00 +29°C° 0 mm 2 mps 756 mmHg 57%
    17:00 +28°C° 0 mm 2 mps 756 mmHg 62%
    18:00 +26°C° 0 mm 2 mps 756 mmHg 66%
    19:00 +26°C° 0 mm 2 mps 756 mmHg 68%
    20:00 +25°C° 0 mm 2 mps 757 mmHg 69%
    21:00 +25°C° 0 mm 1 mps 757 mmHg 71%
    22:00 +24°C° 0 mm 1 mps 757 mmHg 72%
    23:00 +24°C° 0 mm 1 mps 757 mmHg 74%
    Show more